Location: Cahas Mountain Overlook
(37.0833°N, 80.1000°W)
Time: 13:29:23
(UTC-05:00)

S-56A Canister/Altair - Pass Details

Date: 29 November 2023
Orbit: 639 x 2488 km, 38.9° (Epoch: 02 March)

Event Time Altitude Azimuth Distance (km) Brightness Sun altitude
Rises 11:33:15 0° 199° (SSW) 3,089 11.5 30.8°
Reaches altitude 10° 11:36:53 10° 172° (S) 2,046 11.3 30.9°
Maximum altitude 11:39:03 13° 143° (SE) 1,809 10.6 31.0°
Drops below altitude 10° 11:41:11 10° 114° (ESE) 2,023 10.2 31.0°
Sets 11:44:43 0° 86° (E) 3,021 10.6 31.1°
